Lapse_Rate
7.0 6.5 6.5 6.5 6.5 6.5 6.5 6.5 6.5 6.5 6.5 6.5 6.5 6.5 6.5 6.8 6.9 6.9 7.1 7.3 7.5 7.7 8.2 8.5 8.5 8.5 8.6 8.0 7.7 5.7 4.9 4.2 3.8 3.4 3.8 4.2 4.9 4.7 4.9 4.9 4.8 5.6 6.0 6.0
6.5 6.5 6.5 6.5 6.5 6.5 6.5 6.5 6.5 6.5 6.5 6.5 6.5 6.5 6.5 6.5 6.6 6.9 7.0 7.2 7.4 7.7 7.9 7.3 5.1 5.5 6.1 7.9 7.6 6.5 4.8 3.5 3.8 4.1 4.7 5.2 5.5 5.1 5.4 4.7 4.8 5.3 5.8 5.8
6.5 6.5 6.5 6.5 6.5 6.5 6.5 6.5 6.5 6.5 6.5 6.5 6.5 6.5 6.5 6.5 6.7 7.0 7.3 7.4 7.5 7.4 7.6 7.4 5.0 4.5 4.9 7.1 7.9 5.4 3.9 3.5 4.3 4.5 3.8 4.2 3.9 3.9 4.1 4.5 5.3 5.2 5.5 5.8
6.5 6.6 6.5 6.5 6.5 6.5 6.5 6.5 6.5 6.5 6.5 6.5 6.5 6.5 6.5 6.5 6.5 6.5 6.8 7.1 7.3 7.2 7.3 7.9 6.2 5.7 5.3 6.3 6.9 4.7 3.9 3.9 4.2 4.1 4.3 4.8 5.5 5.0 5.1 5.4 6.0 5.3 5.4 5.9
6.5 6.5 6.5 6.5 6.5 6.5 6.5 6.5 6.5 6.5 6.5 6.5 6.5 6.5 6.5 6.5 6.5 6.5 6.5 6.9 7.3 7.6 7.0 6.9 6.5 6.3 6.7 6.4 5.9 5.1 3.8 4.1 4.2 4.1 5.5 5.7 5.8 5.5 5.1 5.3 5.2 5.5 5.5 5.7
6.5 6.9 6.5 6.5 6.5 6.5 6.5 6.5 6.5 6.5 6.5 6.5 6.5 6.5 6.5 6.5 6.5 6.5 6.5 7.0 7.2 7.5 7.7 7.9 7.6 7.6 7.7 6.7 5.6 4.5 3.9 4.0 4.2 4.5 5.2 5.4 5.2 4.8 4.7 5.1 5.4 5.8 5.9 6.1
6.5 6.5 6.5 6.6 6.5 6.5 6.5 6.5 6.5 6.5 6.5 6.5 6.5 6.5 6.5 6.5 6.5 6.5 6.5 6.9 7.3 7.5 7.6 7.8 7.9 7.8 7.3 5.6 5.2 4.3 4.3 4.1 4.2 4.6 4.7 4.9 5.1 5.1 5.7 5.6 6.2 6.0 6.1 6.1
6.5 6.5 6.5 6.5 6.5 6.5 6.5 6.5 6.5 6.5 6.5 6.5 6.5 6.5 6.5 6.5 6.6 6.8 7.0 7.2 7.4 7.5 7.7 7.8 7.9 8.0 6.6 5.2 4.6 4.2 4.7 4.4 4.6 4.6 4.6 4.6 4.8 5.1 6.2 6.2 6.2 6.2 6.5 6.1
6.5 6.5 6.5 6.5 6.5 6.5 6.5 6.5 6.5 6.5 6.5 6.5 6.5 6.5 6.5 6.5 6.5 6.5 6.7 6.9 7.1 7.5 7.7 7.8 8.1 8.0 5.9 5.5 4.9 4.5 5.2 5.0 4.5 4.4 4.4 4.2 4.4 4.8 5.7 5.7 5.8 5.5 5.7 5.4
6.5 6.5 6.5 6.5 6.6 6.5 6.5 6.5 6.5 6.5 6.5 6.5 6.5 6.5 6.5 6.5 6.5 6.5 6.5 6.7 7.1 7.5 7.7 7.9 8.1 7.9 6.5 5.7 5.0 5.2 5.5 4.6 4.2 4.3 4.4 4.2 4.2 4.3 5.1 5.2 5.2 5.3 5.4 4.9
6.5 6.5 6.5 6.5 6.5 6.5 6.5 6.5 6.5 6.5 6.5 6.5 6.5 6.5 6.5 6.5 6.5 6.5 6.5 6.9 7.1 7.4 7.6 7.9 7.9 7.6 7.0 5.9 4.9 4.9 5.1 5.2 4.4 4.4 4.1 3.7 3.7 4.0 4.4 4.9 5.2 5.1 5.1 5.2
6.5 6.5 6.5 6.5 6.5 6.5 6.5 6.5 6.5 6.5 6.5 6.5 6.5 6.5 6.5 6.5 6.5 6.5 6.6 6.9 7.2 7.4 7.7 7.9 8.0 7.3 6.9 6.0 4.8 5.1 5.2 5.0 4.4 4.1 3.9 3.5 3.9 3.8 3.8 4.3 4.9 4.8 4.8 5.0
6.5 6.5 6.5 6.5 6.5 6.5 6.5 6.5 6.5 6.5 6.5 6.5 6.5 6.5 6.5 6.5 6.5 6.7 6.7 7.0 7.2 7.4 7.6 7.9 8.0 7.9 7.3 6.1 5.3 5.7 5.3 4.8 4.4 4.4 3.9 3.4 3.5 3.4 3.6 4.2 4.5 4.2 4.8 4.7
6.3 6.5 6.5 6.5 6.5 6.5 6.5 6.5 6.5 6.5 6.5 6.5 6.5 6.5 6.5 6.5 6.5 6.5 6.7 6.8 6.9 6.6 6.7 7.2 7.6 7.4 7.3 6.9 6.1 5.9 5.4 5.2 4.4 4.1 3.7 3.2 3.0 3.3 3.9 4.1 4.1 4.2 4.6 4.8
6.5 6.5 6.5 6.5 6.5 6.5 6.5 6.5 6.5 6.5 6.5 6.5 6.5 6.5 6.5 6.5 6.5 6.5 6.8 6.9 6.1 3.6 3.7 5.6 5.3 5.6 6.4 6.1 6.2 6.0 5.7 5.0 4.0 3.7 3.4 3.1 2.9 3.4 3.8 3.5 3.6 4.0 4.4 4.8
6.5 6.5 6.5 6.5 6.5 6.5 6.5 6.5 6.5 6.5 6.5 6.5 6.5 6.5 6.5 6.6 6.7 6.5 6.7 6.8 6.6 4.1 1.6 2.5 3.8 3.2 4.3 3.0 5.3 5.5 4.5 3.4 3.5 3.5 2.9 3.6 3.3 3.1 2.9 3.1 3.2 3.6 3.9 4.5
6.5 6.5 6.5 6.5 6.5 6.5 6.5 6.5 6.5 6.5 6.5 6.5 6.5 6.5 6.5 6.5 6.5 6.5 6.4 6.5 6.0 5.0 3.6 2.8 2.7 1.3 2.5 2.6 3.7 3.7 3.4 2.6 3.0 3.1 2.8 3.1 3.2 2.7 2.7 3.0 3.1 3.4 3.7 4.2
6.5 6.5 6.5 6.5 6.5 6.5 6.5 6.5 6.5 6.5 6.5 6.5 6.5 6.5 6.5 6.5 6.9 7.0 7.2 6.7 5.9 6.7 4.3 2.8 2.6 2.7 2.3 2.4 2.0 3.1 3.3 2.8 2.6 3.1 2.6 2.6 2.2 2.2 2.2 2.0 2.9 3.6 3.9 4.1
6.5 6.5 6.5 6.5 6.5 6.5 6.5 6.5 6.5 6.5 6.5 6.5 6.5 6.5 6.5 6.7 6.8 6.9 6.9 7.4 6.9 4.2 3.6 3.3 3.2 3.4 2.3 1.2 1.7 1.6 1.5 1.8 2.1 2.3 2.4 2.3 2.3 1.8 1.7 1.8 2.7 3.7 3.7 3.9
6.5 6.5 6.5 6.5 6.5 6.5 6.5 6.5 6.5 6.5 6.5 6.5 6.5 6.5 6.5 6.6 6.5 6.5 7.1 4.9 5.1 4.8 2.9 1.6 1.9 1.7 0.8 0.7 0.8 0.7 0.5 0.2 0.5 0.9 1.0 1.5 1.9 2.0 2.1 2.2 2.5 2.3 3.3 3.1
6.5 6.5 6.5 6.5 6.5 6.5 6.5 6.5 6.7 6.5 6.5 6.5 6.7 6.6 6.6 6.5 6.7 7.0 6.0 4.3 3.7 2.3 0.6 0.2 0.3 0.5 0.5 -0.3 -0.4 -0.8 -0.6 -0.5 -1.7 -1.3 -0.7 0.1 1.2 1.8 3.1 2.6 1.3 1.5 1.3 0.6
6.5 6.5 6.5 6.5 6.5 6.5 6.5 6.5 6.5 6.5 6.5 6.6 6.8 6.8 6.6 6.9 6.9 7.0 4.4 4.4 3.2 1.5 0.7 0.3 0.2 -0.7 -0.9 -1.9 -1.1 -1.1 -0.9 -3.5 -2.8 -1.8 -1.6 -1.4 -0.4 0.2 0.9 0.1 -0.2 -0.2 0.6 0.2
6.5 6.5 6.5 6.5 6.5 6.5 7.0 6.7 7.1 6.8 6.8 6.7 5.6 6.0 6.8 6.6 6.9 6.8 4.9 3.6 1.7 0.7 0.6 -0.5 -2.4 -3.7 -2.8 -2.5 -1.7 -2.8 -4.1 -4.5 -2.8 -2.6 -2.4 -2.2 -2.0 -1.7 -1.1 -0.4 -0.4 -0.1 -0.1 0.0
6.5 6.5 6.5 6.5 6.5 6.5 6.9 7.3 7.5 7.4 7.1 7.2 5.0 5.8 6.1 6.7 7.0 6.2 4.9 4.2 3.5 1.0 -0.9 -2.7 -3.0 -3.2 -3.1 -3.1 -3.2 -3.3 -4.4 -2.7 -3.0 -2.1 -1.9 -1.6 -1.2 -1.1 -1.1 -0.8 -0.6 0.2 0.2 -0.1
6.5 6.5 6.5 6.5 6.5 6.5 6.9 7.2 7.3 7.4 7.6 6.2 6.1 6.6 5.2 6.3 6.1 5.9 4.6 3.7 3.0 0.7 -1.3 -1.8 -2.4 -3.1 -3.3 -2.7 -3.3 -3.9 -3.1 -2.8 -2.2 -2.1 -1.9 -1.6 -1.4 -1.1 -1.1 -1.1 -0.8 -0.7 -1.0 -0.7
6.5 6.5 6.5 6.5 6.5 6.6 6.7 7.0 6.3 7.0 7.5 7.3 6.1 5.5 5.3 5.2 5.3 4.4 4.1 3.5 2.0 0.1 -0.2 -1.0 -2.1 -2.9 -2.4 -2.4 -3.7 -3.2 -3.1 -2.9 -2.3 -2.0 -1.8 -1.6 -1.4 -1.4 -1.4 -1.1 -0.9 -0.4 -0.1 -0.0
Wind_Speed
13 9 15 20 20 13 6 10 12 7 1 3 11 18 18 16 15 14 14 12 13 10 10 14 12 13 13 14 15 16 15 14 9 7 6 4 4 4 3 2 3 1 1 2
7 19 16 15 16 16 11 11 13 9 4 4 13 18 19 19 19 17 17 16 15 13 12 14 12 11 14 13 16 16 15 15 10 7 5 3 4 3 3 4 4 2 1 2
16 4 15 16 14 15 16 17 13 11 4 11 12 19 21 16 14 16 16 14 13 14 16 15 14 14 14 16 16 15 15 15 12 10 6 5 4 3 3 4 4 3 2 0
16 16 6 17 19 16 14 12 15 11 5 5 2 9 14 8 8 10 13 14 15 12 10 14 15 15 15 14 14 15 14 13 11 12 8 8 5 5 4 5 4 4 2 1
9 10 14 13 9 15 3 4 10 10 9 10 11 7 6 9 9 14 14 13 14 12 12 13 14 14 14 13 13 13 14 14 12 11 8 7 5 3 5 4 6 4 3 2
15 1 14 14 8 18 10 9 7 3 2 6 10 12 11 13 12 11 4 10 11 10 10 11 11 12 13 13 14 13 15 13 12 10 9 8 7 6 6 6 5 4 4 3
15 14 5 7 10 9 12 11 2 2 3 7 3 10 16 12 6 7 8 7 11 11 12 13 15 15 15 16 15 14 15 14 12 11 10 8 7 7 7 7 5 5 4 4
14 10 18 14 14 9 20 16 6 7 6 3 2 9 7 7 7 5 6 5 10 12 12 14 15 15 15 15 16 16 16 14 13 11 10 8 7 5 5 6 5 4 4 3
14 13 22 20 11 16 10 12 9 3 2 3 7 14 13 12 13 12 10 8 12 13 13 14 15 14 15 15 15 15 15 14 13 12 9 8 7 6 6 6 5 4 4 4
7 4 4 12 13 13 13 14 5 4 7 11 13 19 12 4 10 13 10 9 9 12 13 14 14 14 14 13 12 14 13 13 12 11 10 8 8 7 6 6 6 6 5 5
16 6 1 10 15 18 9 12 10 8 10 8 7 11 13 14 16 9 11 12 13 14 14 14 14 14 14 13 13 12 12 12 11 9 9 8 7 8 7 6 6 6 5 5
26 9 7 16 6 17 23 21 23 9 6 11 8 14 4 3 3 3 4 9 11 12 12 13 14 14 14 14 13 12 12 10 10 9 9 8 8 8 8 7 7 6 6 5
19 6 9 5 5 13 12 22 22 18 2 11 8 11 13 9 6 5 5 8 9 11 14 13 13 14 14 15 14 14 13 12 10 11 9 9 8 8 8 8 8 7 6 6
14 15 22 20 25 11 11 21 24 21 11 19 18 27 10 5 8 6 6 6 10 11 12 12 12 12 13 13 14 14 13 12 11 10 10 9 9 8 8 7 7 7 7 6
18 11 23 27 24 17 19 21 23 20 29 17 26 24 23 17 8 3 6 8 9 8 9 12 12 12 12 12 12 12 12 12 11 11 10 9 8 7 7 7 7 6 6 6
21 7 15 25 20 21 12 23 23 24 27 22 21 19 15 14 12 4 7 10 12 12 11 9 11 10 12 9 12 11 10 11 12 11 10 9 9 8 7 7 7 7 7 6
23 8 10 20 23 17 15 16 26 26 24 28 20 30 10 12 13 14 13 14 15 15 14 14 14 11 11 12 11 11 11 10 10 10 9 9 9 8 8 7 7 7 7 7
14 23 12 12 14 28 17 24 22 26 24 27 26 29 20 12 13 14 16 16 14 11 13 14 12 12 10 9 7 9 10 10 9 9 9 9 8 8 7 7 7 7 6 7
10 3 13 17 22 23 21 21 27 23 29 31 29 32 26 11 8 18 16 13 12 14 12 10 10 11 12 11 9 9 8 8 9 9 10 10 10 9 8 8 7 6 6 6
14 13 8 8 22 32 29 25 25 26 24 19 25 31 28 13 11 20 15 15 15 14 12 14 12 10 11 10 10 10 9 8 8 7 7 8 8 9 9 7 6 4 4 3
17 16 19 14 5 6 7 21 22 28 16 27 29 30 18 19 25 5 11 14 15 17 18 16 14 12 10 9 8 8 8 6 6 6 6 6 6 7 7 7 4 5 4 4
12 11 15 9 10 13 2 3 20 17 22 18 25 29 14 24 24 17 11 14 16 17 17 15 13 12 10 9 10 9 8 6 7 6 6 6 5 4 5 7 4 4 4 4
12 7 3 8 4 13 16 13 16 13 27 17 6 6 18 25 20 12 14 16 15 19 15 13 15 13 8 6 10 11 8 8 8 8 8 7 6 5 5 6 5 4 3 3
3 4 3 3 4 3 16 16 16 16 15 14 4 6 7 15 15 14 15 15 15 15 16 15 17 14 11 8 9 11 10 9 10 9 8 7 7 6 5 4 3 3 2 2
0 8 6 4 2 2 13 12 9 16 17 12 11 8 10 9 13 16 15 16 15 15 13 15 15 14 13 11 12 11 9 10 10 9 8 7 5 6 6 4 3 3 3 2
6 6 6 5 6 1 6 10 12 18 17 15 9 9 5 12 15 14 15 16 16 16 14 13 14 16 13 13 13 11 9 9 10 9 7 6 6 5 5 5 4 7 6 6
Wind_Direction
195 207 208 203 211 239 291 252 251 262 103 255 258 267 273 281 278 254 254 239 229 221 196 186 190 191 191 188 177 172 168 163 158 160 157 169 189 169 176 163 148 165 7 19
187 231 223 222 222 234 238 245 251 265 242 238 275 276 281 273 261 253 248 239 227 216 188 170 176 185 200 186 179 173 170 166 168 162 164 159 161 174 163 169 173 172 222 26
214 219 220 219 220 214 225 236 241 247 321 251 288 281 263 252 241 245 240 244 232 205 196 195 191 188 188 187 181 173 169 168 167 161 139 137 123 126 159 188 180 176 190 58
237 236 199 208 223 207 231 223 237 253 265 259 359 291 284 279 244 233 237 230 225 215 226 198 191 192 188 180 174 173 167 167 166 158 166 172 181 166 182 178 164 160 179 159
210 198 189 203 219 199 232 146 213 226 243 283 248 268 264 236 255 262 235 220 214 205 197 196 189 187 180 172 170 168 165 166 166 168 176 179 181 145 155 162 157 168 162 183
235 118 209 215 186 189 144 119 95 128 216 251 224 222 260 252 242 245 254 195 193 188 184 181 176 172 170 164 165 162 166 166 165 168 175 180 177 164 164 169 172 173 166 171
211 206 182 173 141 183 196 163 116 202 188 246 50 209 251 291 279 253 268 211 182 176 174 169 170 172 167 169 166 164 168 164 168 172 174 180 181 176 182 174 182 164 173 181
201 209 193 183 199 178 196 191 186 205 187 249 126 232 261 231 292 277 247 271 177 176 174 173 174 175 171 170 167 166 168 164 170 174 176 175 179 182 184 184 172 178 174 166
200 227 180 184 186 161 178 213 211 86 95 274 219 253 266 234 245 229 234 215 189 185 176 175 173 171 170 170 170 171 170 168 172 173 171 176 178 184 182 171 173 163 165 160
208 204 218 174 190 218 201 162 168 216 213 237 249 254 253 271 252 242 219 210 194 186 179 173 174 173 171 170 168 173 175 173 173 172 174 177 178 178 182 174 180 174 169 168
217 235 14 157 211 181 173 191 205 188 219 211 257 247 238 230 243 245 215 201 191 185 182 177 175 174 171 170 170 173 177 172 174 177 171 170 170 177 180 183 178 180 170 177
217 224 174 202 188 233 213 210 194 194 182 231 259 260 145 223 227 221 250 189 185 181 180 179 177 173 174 174 174 176 177 175 177 177 172 174 173 173 182 190 180 175 183 180
198 204 200 158 274 233 230 223 211 228 204 203 192 258 212 181 190 196 222 189 177 178 178 177 178 181 180 180 179 179 178 179 177 178 174 176 177 181 190 191 181 175 180 181
200 218 220 217 217 155 204 207 218 214 214 222 215 248 203 213 236 221 197 195 182 177 175 178 182 184 185 184 181 180 180 176 176 175 178 178 184 186 190 186 182 176 180 184
202 223 223 236 244 205 202 201 209 211 221 210 228 235 239 237 237 211 195 184 177 181 176 181 178 180 182 183 180 180 177 172 173 177 181 183 182 184 181 180 183 177 178 185
216 221 219 235 238 249 259 203 200 212 223 222 238 262 237 247 238 185 206 192 198 196 191 178 176 170 182 175 177 177 174 168 173 179 182 182 180 180 179 177 178 177 182 184
223 217 218 223 226 229 234 221 201 214 222 215 217 237 214 215 221 217 216 203 211 203 187 185 186 175 175 175 173 176 175 164 174 176 175 177 177 179 180 175 174 183 186 187
242 229 219 237 230 231 224 222 218 216 221 223 232 240 233 229 215 231 231 219 213 191 185 187 181 179 175 161 160 164 166 162 172 177 173 175 172 172 171 167 180 185 186 191
193 250 229 223 234 242 222 218 206 202 226 220 226 242 237 232 217 239 226 219 210 185 179 174 168 163 161 159 157 145 149 163 173 178 177 177 177 169 169 175 183 178 182 185
210 222 235 207 229 233 230 223 204 207 234 215 220 238 234 199 224 245 196 185 190 175 156 150 145 141 150 153 152 151 160 159 169 170 166 163 168 164 169 170 168 142 177 170
206 214 227 237 258 236 191 227 200 203 213 217 219 229 209 204 219 203 184 181 173 162 150 141 146 146 141 137 141 139 142 152 122 121 131 136 151 157 163 149 120 151 139 139
198 203 214 215 235 236 236 193 195 210 227 229 224 234 211 223 230 216 175 166 152 147 144 141 135 130 132 135 138 135 135 105 103 108 106 104 110 114 116 120 122 128 151 150
214 218 221 213 227 327 310 304 302 216 224 233 250 248 226 213 217 198 171 159 157 150 146 136 129 118 114 123 142 129 136 119 122 114 109 105 95 87 96 124 127 129 141 141
184 136 214 148 194 257 311 311 304 315 317 324 247 229 219 208 202 173 157 155 152 147 145 136 130 130 132 121 111 125 119 131 119 119 115 109 107 106 97 96 97 112 119 112
95 156 180 246 283 238 251 279 339 328 311 300 297 254 208 185 173 162 155 153 149 144 143 141 139 136 132 132 127 114 129 124 125 120 117 113 112 110 104 86 91 94 66 103
193 169 180 218 152 71 302 287 305 305 292 285 284 274 206 166 164 155 156 151 146 141 141 132 128 129 133 132 115 116 123 129 134 128 128 128 127 121 111 111 102 78 97 99